Find Starlink 3766

NORAD ID: 52296 Int'l Des: 2022-041 Owner: SPXS Country: US Constellation: starlink operational
LEOCIRCULAR

当前视图

正在加载3D地球...

About Starlink 3766

Starlink 3766 (NORAD 52296) is a starlink constellation satellite (v1.5) launched Apr 21, 2022 by SPXS of US. It operates in LEO, CIRCULAR orbit with a mass of 297.00 kg.

关于 Starlink 3766

正在加载描述...

即将过境

Passes for default location (London). Set your location on the main map for personalized predictions.

高度历史

Loading altitude history...

两行轨道根数

1 52296U 22041AM 26195.58335648 .00075775 00000-0 29980-2 0 9999
2 52296 53.1587 248.6161 0000525 150.4359 151.8278 15.24799837 5846
Epoch: Jul 14, 2026 • Age: 9 hours

当前状态

高度 508.1 km
远地点 / 近地点 N/A
速度 7.61 km/s
星下点 -48.98°S, 155.21°W
发射日期 Apr 21, 2022
运行时间 4.2 years
类型 internet

技术详情

分类 Payload
质量 297.00 kg
干质量 275.00 kg
总质量 297.00 kg
长度 0.20 m
直径 2.80 m
跨度 9.00 m
形状 Box + pan
制造商 SPXS
平台类型 Starlink
阶段状态 In Orbit
所有者/国家 SPXS/US

Most Searched